Location: Camoruquito
(9.9001°N, 67.3564°W)
Time: 04:41:23
(UTC+00:00)

Cosmos 1943 Rocket - Pass Details

Date: 14 April 2024
Orbit: 810 x 845 km, 71.0° (Epoch: 21 May)

Event Time Altitude Azimuth Distance (km) Brightness Sun altitude
Rises 09:53:50 0° 322° (NW) 3,392 5.1 -7.0°
Reaches altitude 10° 09:56:43 10° 309° (NW) 2,457 4.2 -6.3°
Maximum altitude 10:01:07 24° 257° (WSW) 1,680 3.2 -5.3°
Drops below altitude 10° 10:05:33 10° 204° (SSW) 2,449 4.3 -4.2°
Sets 10:08:26 0° 191° (S) 3,378 5.1 -3.5°
